DW6863 Bow WA US current weather conditions

sailwx.info

Wind from 090 at 2 knots gusting 5

Air temperature 13.3° C
Dewpoint 11.4° C

Last reported at 2019-Aug-19 08:05 UTC.
Time now 2019-Aug-19 08:24 UTC

Location: N 48°34' W 122°32'.
View on Google Maps.

See reports from other nearby stations

  
Tides and Currents Weather Stations Pressure Air Temp Water Temp Dewpoint Dewpoint Depression Visibility Wind Speed Wind Dir Waves Ship Positions
date/time (UTC)wind fromknots sea level pressurealtimeterstation pressurevisibilityair tempwater tempwave heightnotes
2019-Aug-19 08:10 090 2 gusting 5 13.3
2019-Aug-19 08:05 090 2 gusting 5 13.3
2019-Aug-19 08:00 090 2 gusting 4 13.3
2019-Aug-19 07:55 090 3 gusting 5 13.9
2019-Aug-19 07:50 090 2 gusting 6 13.9
2019-Aug-19 07:45 090 3 gusting 5 13.9
2019-Aug-19 07:35 135 4 gusting 6 13.9
2019-Aug-19 07:30 135 2 gusting 4 13.9
2019-Aug-19 07:25 090 3 gusting 6 13.9
2019-Aug-19 07:20 090 2 gusting 4 13.9
2019-Aug-19 07:15 135 2 gusting 5 13.9
2019-Aug-19 07:10 135 3 gusting 6 13.9
2019-Aug-19 07:05 135 3 gusting 6 14.4
2019-Aug-19 07:00 135 4 gusting 6 14.4
2019-Aug-19 06:55 135 3 gusting 5 14.4
2019-Aug-19 06:50 157 3 gusting 6 14.4
2019-Aug-19 06:45 135 6 gusting 6 14.4
2019-Aug-19 06:40 112 3 gusting 7 14.4
2019-Aug-19 06:35 135 4 gusting 6 14.4
2019-Aug-19 06:30 090 3 gusting 6 14.4
2019-Aug-19 06:25 135 4 gusting 6 14.4
2019-Aug-19 06:20 135 3 gusting 6 14.4
2019-Aug-19 06:15 157 4 gusting 6 14.4
2019-Aug-19 06:10 090 4 gusting 8 14.4
2019-Aug-19 06:05 135 4 gusting 6 14.4
2019-Aug-19 06:00 135 3 gusting 6 14.4
2019-Aug-19 05:55 135 2 gusting 7 14.4
2019-Aug-19 05:50 157 4 gusting 7 14.4
2019-Aug-19 05:45 135 3 gusting 6 14.4
2019-Aug-19 05:40 135 2 gusting 5 14.4
2019-Aug-19 05:35 090 2 gusting 5 15.0
2019-Aug-19 05:30 135 3 gusting 5 15.0
2019-Aug-19 05:25 225 15.0
2019-Aug-19 05:20 135 1 gusting 3 15.0
2019-Aug-19 05:15 135 0 gusting 2 15.0
2019-Aug-19 05:10 180 1 gusting 3 15.6
2019-Aug-19 05:05 180 1 gusting 4 15.6
2019-Aug-19 05:00 135 0 gusting 4 15.6
2019-Aug-19 04:55 112 2 gusting 3 15.6
2019-Aug-19 04:50 135 0 gusting 3 15.0
2019-Aug-19 04:45 090 0 gusting 3 15.0
2019-Aug-19 04:40 157 1 gusting 2 15.0
2019-Aug-19 04:35 090 0 gusting 4 15.0
2019-Aug-19 04:30 090 1 gusting 2 15.6
2019-Aug-19 04:25 157 0 gusting 3 15.6
2019-Aug-19 04:20 090 0 gusting 2 15.6
2019-Aug-19 04:15 135 2 gusting 3 15.6
2019-Aug-19 04:10 135 2 gusting 4 15.6
2019-Aug-19 04:05 135 1 gusting 2 15.6
2019-Aug-19 04:00 135 1 gusting 2 15.6
2019-Aug-19 03:55 090 1 gusting 3 15.6
2019-Aug-19 03:50 090 0 gusting 1 15.6
2019-Aug-19 03:45 180 0 gusting 4 15.6
2019-Aug-19 03:40 157 1 gusting 3 15.6
2019-Aug-19 03:35 225 0 gusting 3 15.6
2019-Aug-19 03:30 112 0 gusting 1 15.6
2019-Aug-19 03:25 090 1 gusting 2 16.1
2019-Aug-19 03:20 090 1 gusting 3 16.1
2019-Aug-19 03:15 157 16.1
2019-Aug-19 03:10 180 0 gusting 2 16.7
2019-Aug-19 03:05 225 16.7
2019-Aug-19 03:00 135 0 gusting 3 16.7
2019-Aug-19 02:55 135 1 gusting 2 17.2
2019-Aug-19 02:50 180 2 gusting 2 17.2
2019-Aug-19 02:45 225 17.2
2019-Aug-19 02:40 247 0 gusting 2 17.2
2019-Aug-19 02:35 180 1 gusting 3 17.2
2019-Aug-19 02:30 225 1 gusting 5 17.2
2019-Aug-19 02:25 180 0 gusting 3 17.2
2019-Aug-19 02:20 180 0 gusting 3 17.2
2019-Aug-19 02:15 247 1 gusting 3 17.8
2019-Aug-19 02:10 202 1 gusting 3 17.8
2019-Aug-19 02:05 202 0 gusting 4 18.3
2019-Aug-19 02:00 225 3 gusting 4 18.3
2019-Aug-19 01:55 225 2 gusting 4 18.3
2019-Aug-19 01:50 202 0 gusting 3 18.9
2019-Aug-19 01:45 180 1 gusting 3 19.4
2019-Aug-19 01:40 225 0 gusting 3 20.0
2019-Aug-19 01:35 202 0 gusting 3 20.6
2019-Aug-19 01:30 180 1 gusting 3 20.6
2019-Aug-19 01:25 202 1 gusting 3 20.6
2019-Aug-19 01:20 225 1 gusting 3 20.0
2019-Aug-19 01:15 270 0 gusting 3 20.0
2019-Aug-19 01:10 270 2 gusting 3 20.0
2019-Aug-19 01:05 247 0 gusting 4 20.0
2019-Aug-19 01:00 225 0 gusting 4 19.4
2019-Aug-19 00:55 270 2 gusting 4 19.4
2019-Aug-19 00:50 270 2 gusting 3 20.0
2019-Aug-19 00:45 225 1 gusting 3 20.0
2019-Aug-19 00:40 225 1 gusting 3 20.0
2019-Aug-19 00:35 270 1 gusting 4 20.0
2019-Aug-19 00:30 270 2 gusting 4 20.0
2019-Aug-19 00:25 270 1 gusting 3 20.0
2019-Aug-19 00:20 247 1 gusting 3 20.0
2019-Aug-19 00:15 270 0 gusting 3 20.0
2019-Aug-19 00:10 270 1 gusting 3 20.0
2019-Aug-19 00:05 270 2 gusting 4 20.0
2019-Aug-19 00:00 270 2 gusting 4 20.0
2019-Aug-18 23:55 270 3 gusting 4 20.0
2019-Aug-18 23:50 270 2 gusting 4 20.0
2019-Aug-18 23:45 270 2 gusting 4 20.6
2019-Aug-18 23:40 270 2 gusting 3 20.6
2019-Aug-18 23:35 270 2 gusting 4 20.6
2019-Aug-18 23:30 270 2 gusting 3 21.1
2019-Aug-18 23:25 270 1 gusting 3 21.1
2019-Aug-18 23:20 270 2 gusting 3 21.1
2019-Aug-18 23:15 247 1 gusting 3 21.1
2019-Aug-18 23:10 270 2 gusting 3 21.1
2019-Aug-18 23:05 270 2 gusting 3 21.1
2019-Aug-18 23:00 270 2 gusting 3 21.1
2019-Aug-18 22:55 270 0 gusting 4 21.1
2019-Aug-18 22:50 270 2 gusting 3 21.7
2019-Aug-18 22:45 270 1 gusting 3 21.7
2019-Aug-18 22:40 270 21.7
2019-Aug-18 22:30 270 1 gusting 3 21.1
2019-Aug-18 22:25 247 1 gusting 3 21.1
2019-Aug-18 22:20 270 1 gusting 4 21.1
2019-Aug-18 22:15 270 2 gusting 3 21.1
2019-Aug-18 22:10 225 1 gusting 4 20.6
2019-Aug-18 22:05 270 2 gusting 4 20.6
2019-Aug-18 22:00 270 1 gusting 3 20.6
2019-Aug-18 21:55 270 3 gusting 4 20.6
2019-Aug-18 21:50 270 2 gusting 3 20.6
2019-Aug-18 21:45 270 2 gusting 5 20.6
2019-Aug-18 21:40 247 2 gusting 4 21.1
2019-Aug-18 21:35 225 0 gusting 3 21.1
2019-Aug-18 21:30 202 1 gusting 4 21.1
2019-Aug-18 21:25 225 0 gusting 2 20.6
2019-Aug-18 21:20 180 1 gusting 3 20.0
2019-Aug-18 21:15 270 2 gusting 3 20.0
2019-Aug-18 21:10 202 1 gusting 3 20.0
2019-Aug-18 21:05 225 1 gusting 3 20.0
2019-Aug-18 21:00 180 2 gusting 3 20.0
2019-Aug-18 20:55 270 1 gusting 4 19.4
2019-Aug-18 20:50 225 1 gusting 3 20.0
2019-Aug-18 20:45 270 0 gusting 4 20.6
2019-Aug-18 20:40 202 2 gusting 3 20.0
2019-Aug-18 20:35 180 1 gusting 3 19.4
2019-Aug-18 20:30 225 0 gusting 3 18.9
2019-Aug-18 20:25 225 1 gusting 3 18.9
2019-Aug-18 20:20 225 1 gusting 3 18.9
2019-Aug-18 20:15 270 1 gusting 3 19.4
2019-Aug-18 20:10 225 1 gusting 2 18.9
2019-Aug-18 20:05 247 1 gusting 3 18.9
2019-Aug-18 20:00 225 1 gusting 3 18.9
2019-Aug-18 19:55 270 1 gusting 2 18.9
2019-Aug-18 19:50 202 0 gusting 2 18.9
2019-Aug-18 19:45 225 1 gusting 3 18.9
2019-Aug-18 19:40 225 0 gusting 2 18.9
2019-Aug-18 19:35 247 0 gusting 2 18.3
2019-Aug-18 19:30 270 1 gusting 2 17.8
2019-Aug-18 19:25 247 0 gusting 2 17.8
2019-Aug-18 19:20 270 1 gusting 3 17.8
2019-Aug-18 19:15 225 1 gusting 2 18.3
2019-Aug-18 19:10 180 1 gusting 2 18.3
2019-Aug-18 19:05 180 1 gusting 3 18.3
2019-Aug-18 19:00 180 1 gusting 3 18.3
2019-Aug-18 18:55 180 2 gusting 3 17.8
2019-Aug-18 18:50 225 1 gusting 3 17.8
2019-Aug-18 18:45 180 1 gusting 2 17.8
2019-Aug-18 18:40 157 3 gusting 4 17.8
2019-Aug-18 18:35 225 1 gusting 3 17.8
2019-Aug-18 18:30 225 0 gusting 2 17.8
2019-Aug-18 18:25 180 0 gusting 2 17.8
2019-Aug-18 18:20 202 0 gusting 3 17.8
2019-Aug-18 18:15 225 1 gusting 3 17.8
2019-Aug-18 18:10 202 17.2
2019-Aug-18 18:05 225 1 gusting 3 17.2
2019-Aug-18 18:00 225 0 gusting 3 17.2
2019-Aug-18 17:55 180 1 gusting 3 17.2
2019-Aug-18 17:50 180 0 gusting 2 17.2
2019-Aug-18 17:45 180 1 gusting 3 17.2
2019-Aug-18 17:40 180 0 gusting 2 17.2
2019-Aug-18 17:35 202 16.7
2019-Aug-18 17:30 202 16.7
2019-Aug-18 17:25 202 1 gusting 2 16.7
2019-Aug-18 17:20 180 2 gusting 3 16.7
2019-Aug-18 17:15 180 1 gusting 3 16.7
2019-Aug-18 17:10 180 0 gusting 3 16.7
2019-Aug-18 17:05 180 0 gusting 3 16.7
2019-Aug-18 17:00 180 1 gusting 3 16.7
2019-Aug-18 16:55 270 16.1
2019-Aug-18 16:50 180 0 gusting 3 16.1
2019-Aug-18 16:45 202 2 gusting 3 16.1
2019-Aug-18 16:40 202 1 gusting 4 16.1
2019-Aug-18 16:35 225 16.1
2019-Aug-18 16:30 180 2 gusting 3 16.1
2019-Aug-18 16:25 180 2 gusting 3 16.1
2019-Aug-18 16:20 180 1 gusting 3 16.1
2019-Aug-18 16:15 135 2 gusting 3 16.1
2019-Aug-18 16:10 157 1 gusting 3 16.1
2019-Aug-18 16:05 157 0 gusting 2 15.6
2019-Aug-18 16:00 180 1 gusting 3 15.6
2019-Aug-18 15:55 180 1 gusting 2 15.6
2019-Aug-18 15:50 180 1 gusting 2 15.6
2019-Aug-18 15:45 180 0 gusting 3 15.6
2019-Aug-18 15:40 180 0 gusting 2 15.6
2019-Aug-18 15:35 180 1 gusting 2 15.6
2019-Aug-18 15:30 180 15.0
2019-Aug-18 15:25 180 1 gusting 2 15.0
2019-Aug-18 15:20 157 0 gusting 3 15.0
2019-Aug-18 15:15 135 1 gusting 3 15.0
2019-Aug-18 15:10 157 0 gusting 3 15.0
2019-Aug-18 15:05 135 1 gusting 3 14.4
2019-Aug-18 15:00 157 1 gusting 5 14.4
2019-Aug-18 14:55 135 3 gusting 4 14.4
2019-Aug-18 14:50 135 3 gusting 6 14.4
2019-Aug-18 14:45 135 1 gusting 5 14.4
2019-Aug-18 14:40 135 0 gusting 6 14.4
2019-Aug-18 14:35 135 3 gusting 5 14.4
2019-Aug-18 14:30 135 1 gusting 5 14.4
2019-Aug-18 14:25 135 3 gusting 5 13.9
2019-Aug-18 14:20 090 2 gusting 6 13.9
2019-Aug-18 14:15 090 3 gusting 4 13.9
2019-Aug-18 14:10 090 3 gusting 4 13.9
2019-Aug-18 14:05 090 3 gusting 4 13.9
2019-Aug-18 14:00 090 3 gusting 5 13.9
2019-Aug-18 13:55 090 3 gusting 5 13.9
2019-Aug-18 13:50 090 2 gusting 4 13.9
2019-Aug-18 13:45 135 2 gusting 5 13.9
2019-Aug-18 13:40 135 3 gusting 5 13.3
2019-Aug-18 13:35 135 3 gusting 5 13.3
2019-Aug-18 13:25 090 3 gusting 6 13.3
2019-Aug-18 13:20 135 4 gusting 6 13.3
2019-Aug-18 13:15 112 3 gusting 6 13.3
2019-Aug-18 13:10 090 3 gusting 6 13.3
2019-Aug-18 13:05 112 2 gusting 6 13.3
2019-Aug-18 13:00 135 3 gusting 5 13.3
2019-Aug-18 12:55 135 3 gusting 5 12.8
2019-Aug-18 12:50 090 3 gusting 4 12.8
2019-Aug-18 12:45 090 2 gusting 3 12.8
2019-Aug-18 12:40 090 2 gusting 4 12.8
2019-Aug-18 12:35 090 3 gusting 4 12.8
2019-Aug-18 12:30 112 2 gusting 4 12.8
2019-Aug-18 12:25 135 2 gusting 3 12.8
2019-Aug-18 12:20 135 2 gusting 3 12.2
2019-Aug-18 12:15 090 2 gusting 2 12.2
2019-Aug-18 12:10 090 1 gusting 3 12.2
2019-Aug-18 12:05 090 1 gusting 3 12.2
2019-Aug-18 12:00 090 1 gusting 3 12.8
2019-Aug-18 11:55 090 2 gusting 4 12.8
2019-Aug-18 11:50 090 2 gusting 3 13.3
2019-Aug-18 11:45 090 1 gusting 3 13.3
2019-Aug-18 11:40 180 0 gusting 4 13.3
2019-Aug-18 11:35 135 1 gusting 3 13.3
2019-Aug-18 11:30 135 13.3
2019-Aug-18 11:25 135 2 gusting 3 13.3
2019-Aug-18 11:20 090 1 gusting 3 13.3
2019-Aug-18 11:15 157 2 gusting 3 13.3
2019-Aug-18 11:10 180 1 gusting 4 13.9
2019-Aug-18 11:05 135 2 gusting 3 13.9
2019-Aug-18 11:00 135 2 gusting 4 13.9
2019-Aug-18 10:55 135 3 gusting 4 13.9
2019-Aug-18 10:50 135 2 gusting 4 13.3
2019-Aug-18 10:45 135 1 gusting 6 13.3
2019-Aug-18 10:40 135 3 gusting 6 13.9
2019-Aug-18 10:35 135 3 gusting 6 13.3
2019-Aug-18 10:30 135 2 gusting 5 13.3
2019-Aug-18 10:25 135 3 gusting 6 13.3
2019-Aug-18 10:20 135 2 gusting 5 13.3
2019-Aug-18 10:15 135 3 gusting 6 13.9
2019-Aug-18 10:10 135 3 gusting 5 13.3
2019-Aug-18 10:05 135 3 gusting 4 13.9
2019-Aug-18 10:00 135 2 gusting 6 13.9
2019-Aug-18 09:55 135 3 gusting 6 13.9
2019-Aug-18 09:50 135 3 gusting 5 13.9
2019-Aug-18 09:45 135 4 gusting 5 13.9
2019-Aug-18 09:40 135 3 gusting 6 13.9
2019-Aug-18 09:35 135 3 gusting 6 13.9
2019-Aug-18 09:30 135 4 gusting 6 13.9
2019-Aug-18 09:25 135 3 gusting 6 13.9
2019-Aug-18 09:20 135 3 gusting 5 14.4
2019-Aug-18 09:15 045 2 gusting 4 14.4
2019-Aug-18 09:10 112 1 gusting 5 14.4
2019-Aug-18 09:05 112 1 gusting 4 13.9
2019-Aug-18 09:00 135 2 gusting 3 13.9
2019-Aug-18 08:55 135 1 gusting 2 13.9
2019-Aug-18 08:50 135 1 gusting 3 14.4
2019-Aug-18 08:45 112 1 gusting 2 14.4
2019-Aug-18 08:40 135 14.4
2019-Aug-18 08:35 180 1 gusting 2 14.4
2019-Aug-18 08:30 202 1 gusting 3 14.4
2019-Aug-18 08:25 135 14.4
2019-Aug-18 08:20 135 1 gusting 3 14.4
2019-Aug-18 08:15 180 0 gusting 2 14.4
2019-Aug-18 08:10 135 1 gusting 3 14.4
2019-Aug-18 08:05 112 1 gusting 3 15.0
2019-Aug-18 08:00 157 2 gusting 2 15.0
2019-Aug-18 07:55 135 0 gusting 2 15.0
2019-Aug-18 07:50 135 1 gusting 2 15.0
2019-Aug-18 07:45 180 0 gusting 3 15.6
2019-Aug-18 07:40 135 1 gusting 5 15.6
2019-Aug-18 07:35 112 3 gusting 5 15.6
2019-Aug-18 07:30 135 3 gusting 6 15.6
2019-Aug-18 07:25 135 2 gusting 3 15.6
2019-Aug-18 07:20 135 2 gusting 4 15.6
2019-Aug-18 07:15 112 1 gusting 3 15.6
2019-Aug-18 07:10 112 2 gusting 2 15.6
2019-Aug-18 07:05 112 1 gusting 3 15.6
2019-Aug-18 07:00 135 1 gusting 3 15.6
2019-Aug-18 06:55 067 2 gusting 3 16.1
2019-Aug-18 06:50 135 0 gusting 1 16.1
2019-Aug-18 06:45 180 0 gusting 2 16.1
2019-Aug-18 06:40 135 16.1
2019-Aug-18 06:35 112 0 gusting 2 16.1
2019-Aug-18 06:30 112 1 gusting 1 16.1
2019-Aug-18 06:25 180 16.1
2019-Aug-18 06:20 180 16.1
2019-Aug-18 06:15 157 1 gusting 3 16.7
2019-Aug-18 06:10 202 16.7
2019-Aug-18 06:05 180 1 gusting 2 16.7
2019-Aug-18 06:00 180 1 gusting 3 16.7
2019-Aug-18 05:55 135 16.7
2019-Aug-18 05:50 135 0 gusting 2 16.7
2019-Aug-18 05:45 157 0 gusting 1 16.7
2019-Aug-18 05:40 157 16.7
2019-Aug-18 05:35 157 16.7
2019-Aug-18 05:30 157 1 gusting 1 16.7
2019-Aug-18 05:25 135 0 gusting 1 16.7
2019-Aug-18 05:20 135 17.2
2019-Aug-18 05:15 135 0 gusting 2 17.2
2019-Aug-18 05:10 202 17.2
2019-Aug-18 05:05 202 17.2
2019-Aug-18 05:00 202 17.2
2019-Aug-18 04:55 202 17.2
2019-Aug-18 04:50 202 0 gusting 2 16.7
2019-Aug-18 04:45 225 0 gusting 1 16.7
2019-Aug-18 04:40 225 0 gusting 1 17.2
2019-Aug-18 04:35 270 17.2
2019-Aug-18 04:30 270 17.2
2019-Aug-18 04:25 270 17.2
2019-Aug-18 04:20 270 1 gusting 3 16.7
2019-Aug-18 04:15 270 16.7
2019-Aug-18 04:10 270 16.7
2019-Aug-18 04:05 270 0 gusting 1 16.7
2019-Aug-18 04:00 270 0 gusting 2 16.7
2019-Aug-18 03:55 270 1 gusting 1 16.7
2019-Aug-18 03:50 270 16.7
2019-Aug-18 03:45 270 16.7
2019-Aug-18 03:40 270 16.7
2019-Aug-18 03:35 270 16.7
2019-Aug-18 03:30 270 0 gusting 1 17.2
2019-Aug-18 03:25 270 0 gusting 2 17.8
2019-Aug-18 03:20 292 1 gusting 2 18.3
2019-Aug-18 03:15 315 18.9
2019-Aug-18 03:10 315 18.9
2019-Aug-18 03:05 315 0 gusting 1 19.4
2019-Aug-18 03:00 315 19.4
2019-Aug-18 02:55 315 19.4
2019-Aug-18 02:50 315 19.4
2019-Aug-18 02:45 315 1 gusting 2 20.0
2019-Aug-18 02:40 315 0 gusting 2 20.0
2019-Aug-18 02:35 067 0 gusting 2 20.0
2019-Aug-18 02:30 315 19.4
2019-Aug-18 02:25 315 0 gusting 3 19.4
2019-Aug-18 02:20 270 3 gusting 4 20.0
2019-Aug-18 02:15 270 2 gusting 5 20.6
2019-Aug-18 02:10 067 20.6
2019-Aug-18 02:05 090 3 gusting 4 20.6
2019-Aug-18 02:00 090 2 gusting 5 21.1
2019-Aug-18 01:55 045 2 gusting 3 21.1
2019-Aug-18 01:50 045 1 gusting 3 21.7
2019-Aug-18 01:45 045 21.7
2019-Aug-18 01:40 045 0 gusting 3 21.7
2019-Aug-18 01:35 045 1 gusting 3 21.7
2019-Aug-18 01:30 067 1 gusting 2 22.2
2019-Aug-18 01:25 315 1 gusting 2 22.2
2019-Aug-18 01:20 270 21.7
2019-Aug-18 01:15 045 0 gusting 2 21.1
2019-Aug-18 01:10 067 20.6
2019-Aug-18 01:05 022 0 gusting 3 20.6
2019-Aug-18 01:00 045 2 gusting 3 20.6
2019-Aug-18 00:55 045 1 gusting 3 20.6
2019-Aug-18 00:50 067 1 gusting 2 20.0
2019-Aug-18 00:45 067 2 gusting 3 20.0
2019-Aug-18 00:40 067 0 gusting 3 20.0
2019-Aug-18 00:35 045 3 gusting 4 20.0
2019-Aug-18 00:30 360 1 gusting 4 20.0
2019-Aug-18 00:25 045 0 gusting 2 19.4
2019-Aug-18 00:20 022 19.4
2019-Aug-18 00:15 045 1 gusting 3 18.9
2019-Aug-18 00:10 045 1 gusting 4 18.9
2019-Aug-18 00:05 022 2 gusting 4 19.4
2019-Aug-18 00:00 045 0 gusting 3 19.4
2019-Aug-17 23:55 045 1 gusting 2 19.4
2019-Aug-17 23:50 292 1 gusting 3 18.9
2019-Aug-17 23:45 067 2 gusting 4 18.9
2019-Aug-17 23:40 045 2 gusting 4 19.4
2019-Aug-17 23:35 045 2 gusting 4 19.4
2019-Aug-17 23:30 045 1 gusting 5 19.4
2019-Aug-17 23:25 045 2 gusting 4 19.4
2019-Aug-17 23:20 360 1 gusting 4 19.4
2019-Aug-17 23:15 045 2 gusting 3 20.0
2019-Aug-17 23:10 045 0 gusting 4 20.0
2019-Aug-17 23:05 045 0 gusting 4 20.0
2019-Aug-17 23:00 067 1 gusting 3 20.6
2019-Aug-17 22:55 315 1 gusting 4 20.6
2019-Aug-17 22:50 270 3 gusting 4 20.6
2019-Aug-17 22:45 270 2 gusting 5 20.6
2019-Aug-17 22:40 270 3 gusting 5 20.0
2019-Aug-17 22:35 270 3 gusting 5 20.0
2019-Aug-17 22:30 247 3 gusting 5 20.0
2019-Aug-17 22:25 270 3 gusting 6 20.0
2019-Aug-17 22:20 270 3 gusting 6 20.0
2019-Aug-17 22:15 270 3 gusting 4 20.6
2019-Aug-17 22:10 270 2 gusting 5 20.0
2019-Aug-17 22:05 247 4 gusting 6 20.0
2019-Aug-17 22:00 292 2 gusting 5 20.6
2019-Aug-17 21:55 270 3 gusting 5 20.6
2019-Aug-17 21:50 270 3 gusting 5 20.6
2019-Aug-17 21:45 270 4 gusting 6 20.6
2019-Aug-17 21:40 247 3 gusting 5 20.0
2019-Aug-17 21:35 270 4 gusting 5 20.0
2019-Aug-17 21:30 270 4 gusting 6 20.0
2019-Aug-17 21:25 270 3 gusting 6 20.0
2019-Aug-17 21:20 247 3 gusting 5 20.0
2019-Aug-17 21:15 270 4 gusting 6 20.0
2019-Aug-17 21:10 270 4 gusting 6 20.0
2019-Aug-17 21:05 270 4 gusting 5 20.0
2019-Aug-17 21:00 270 4 gusting 6 20.0
2019-Aug-17 20:55 270 4 gusting 6 20.0
2019-Aug-17 20:50 292 4 gusting 6 20.0
2019-Aug-17 20:45 247 4 gusting 6 20.0
2019-Aug-17 20:40 270 4 gusting 6 20.0
2019-Aug-17 20:35 270 5 gusting 6 20.6
2019-Aug-17 20:30 270 4 gusting 6 20.6
2019-Aug-17 20:25 270 4 gusting 6 20.6
2019-Aug-17 20:20 270 5 gusting 6 20.0
2019-Aug-17 20:15 247 5 gusting 6 20.0
2019-Aug-17 20:10 270 5 gusting 6 20.6
2019-Aug-17 20:05 247 2 gusting 6 20.6
2019-Aug-17 20:00 270 4 gusting 6 20.6
2019-Aug-17 19:55 247 3 gusting 6 20.6
2019-Aug-17 19:50 225 1 gusting 4 20.0
2019-Aug-17 19:45 270 3 gusting 6 20.0
2019-Aug-17 19:40 270 5 gusting 6 19.4
2019-Aug-17 19:35 270 4 gusting 6 19.4
2019-Aug-17 19:30 247 3 gusting 6 20.0
2019-Aug-17 19:25 270 3 gusting 4 20.0
2019-Aug-17 19:20 270 1 gusting 5 19.4
2019-Aug-17 19:15 315 3 gusting 5 19.4
2019-Aug-17 19:10 270 2 gusting 6 18.9
2019-Aug-17 19:05 270 3 gusting 5 19.4
2019-Aug-17 19:00 270 2 gusting 5 19.4
2019-Aug-17 18:55 270 2 gusting 5 19.4
2019-Aug-17 18:50 315 2 gusting 5 18.9
2019-Aug-17 18:45 270 2 gusting 4 18.9
2019-Aug-17 18:40 270 1 gusting 4 19.4
2019-Aug-17 18:35 270 2 gusting 4 18.9
2019-Aug-17 18:30 270 2 gusting 3 18.9
2019-Aug-17 18:25 225 1 gusting 3 19.4
2019-Aug-17 18:20 225 20.0